RH
74 76 80 78 76 68 62 55 52 44 41 34 31 25 34 31 27 26 40 19 22 19 25 24 25 26 24 24 22 24 32 36 25 20 24 17 14 16 14 14 15 25 26 29 32
72 79 84 85 85 75 65 56 52 46 37 36 28 27 35 33 33 41 17 21 22 19 23 27 26 26 24 22 25 31 36 25 17 15 16 18 16 16 15 17 19 20 28 34 33
69 77 87 89 90 76 68 59 54 48 40 36 28 28 35 33 54 30 18 20 21 18 20 26 26 26 22 22 22 25 28 24 18 20 19 18 17 16 17 17 19 21 21 24 30
73 83 92 89 86 75 69 63 57 46 42 37 28 32 33 35 34 22 20 17 19 16 17 24 19 18 20 21 18 22 20 18 17 19 18 17 18 18 18 17 18 20 20 24 27
73 74 74 76 77 78 72 67 62 57 43 39 29 36 31 50 42 24 22 22 18 16 22 24 20 21 22 20 17 19 18 18 16 22 18 18 19 19 19 19 20 28 29 30 29
79 73 72 80 80 80 76 71 66 65 50 38 34 36 46 49 23 27 20 22 16 18 21 21 18 17 20 20 20 18 18 20 19 16 17 19 20 19 18 21 23 29 33 34 32
83 80 80 85 88 85 76 73 71 69 47 35 43 37 59 42 25 27 26 22 19 18 20 17 16 18 20 22 19 18 21 21 20 18 18 20 22 25 20 21 29 34 37 37 35
82 83 82 87 90 87 82 80 74 66 43 34 42 48 59 22 22 22 24 31 22 21 17 16 16 18 20 19 24 22 21 26 19 22 20 18 25 18 23 24 33 37 41 42 40
84 85 83 89 96 87 86 77 71 52 36 39 42 53 52 24 24 20 23 22 18 18 17 16 17 22 22 30 36 30 28 25 23 20 24 20 21 21 24 23 34 41 45 46 44
87 88 86 86 89 90 88 75 57 37 38 46 51 48 36 30 20 20 22 19 19 20 20 20 30 32 35 38 42 28 25 22 22 20 23 25 28 22 21 24 34 43 47 50 50
90 91 89 88 87 92 91 63 55 47 61 44 39 37 24 24 20 19 22 22 21 24 30 26 34 40 32 34 30 28 26 24 20 18 20 23 25 23 23 23 35 44 49 52 53
95 91 93 89 88 93 85 70 39 29 41 48 47 39 29 22 24 21 22 25 28 32 30 35 40 31 30 31 30 23 22 24 21 21 22 24 26 24 24 25 32 39 49 52 52
98 93 91 90 87 98 92 56 40 35 36 31 35 36 32 26 29 25 23 26 29 34 35 40 32 29 32 30 26 22 24 22 22 22 22 25 31 28 25 26 30 37 41 46 51
98 95 92 88 98 95 96 29 42 40 40 34 42 31 28 27 33 21 21 24 28 35 35 37 30 30 26 23 23 25 22 23 23 26 32 25 41 31 29 29 32 40 48 49 50
99 95 90 85 83 94 60 29 37 34 54 28 42 25 24 34 30 30 20 24 33 32 34 38 30 38 34 28 22 28 23 21 23 30 33 32 37 31 32 33 34 45 45 49 48
97 93 88 97 77 68 37 30 36 46 61 36 35 35 35 33 29 27 24 22 25 30 28 33 21 23 26 22 22 23 24 35 40 41 48 36 36 30 36 34 33 42 43 44 49
98 92 89 92 70 50 35 42 55 63 31 39 42 37 37 41 36 31 32 33 39 44 41 29 25 20 22 26 24 26 32 46 49 56 53 32 39 26 23 30 30 37 41 44 46
100 92 90 93 51 45 35 54 61 52 45 32 36 40 39 38 39 34 36 39 32 32 43 44 44 28 24 25 28 30 31 44 50 56 41 29 39 25 23 27 26 31 34 44 49
100 100 98 92 64 44 42 55 51 51 34 38 40 48 46 39 38 35 40 41 33 32 36 47 42 27 26 24 23 30 35 27 35 35 37 32 24 22 22 26 31 35 42 43 46
98 98 94 91 78 62 48 48 44 36 33 34 44 44 56 47 44 42 45 38 33 30 26 30 36 30 28 24 26 30 27 36 39 41 41 35 30 26 23 24 31 37 39 41 43
98 97 78 94 78 68 58 42 45 27 31 34 41 46 43 45 42 47 48 34 31 34 27 30 31 35 28 33 36 34 34 32 35 40 42 38 30 25 24 25 28 34 36 39 43
93 98 92 86 88 65 67 46 37 32 31 33 34 34 40 41 40 44 42 32 28 31 36 32 36 47 37 28 29 30 32 34 44 35 42 38 34 21 23 25 27 28 32 38 40
96 98 96 72 79 76 53 43 40 36 34 37 36 35 33 42 39 38 37 28 29 35 34 29 38 44 36 33 29 33 32 30 33 35 38 39 33 23 24 22 26 28 30 38 47
98 98 96 86 69 63 55 44 44 40 38 36 35 32 30 36 34 43 39 33 31 32 36 30 35 34 36 34 33 35 35 32 31 38 34 41 30 23 22 23 23 27 30 36 46
96 88 77 89 78 60 49 44 44 51 40 34 35 35 33 38 36 40 44 39 36 37 30 31 37 35 33 30 29 30 31 36 36 30 37 27 32 22 25 25 25 26 32 47 55
96 78 68 66 61 60 54 51 47 41 46 45 42 39 35 40 35 40 46 40 35 39 34 39 39 38 33 28 29 28 30 33 33 30 34 31 33 24 24 26 30 31 41 49 51
88 55 56 63 59 64 57 48 44 42 42 38 36 37 40 37 28 30 34 35 34 41 41 42 44 41 40 32 35 43 37 32 31 31 28 37 25 26 31 34 34 34 48 48 50
Wind_Speed
17 16 14 13 11 10 10 9 9 9 10 9 10 8 11 14 16 10 6 5 4 5 5 2 2 3 2 3 2 3 4 1 2 1 1 5 2 5 1 4 4 5 3 2 20
19 18 16 15 14 12 11 10 10 10 9 10 9 9 11 14 17 10 9 7 6 7 7 4 1 4 4 2 3 4 3 4 2 1 2 2 2 2 2 4 2 3 6 9 10
20 19 18 17 15 14 13 12 11 10 8 9 9 9 11 13 5 6 9 13 8 9 6 4 4 3 2 2 2 3 4 3 2 3 5 1 3 2 3 1 4 5 5 4 5
21 19 19 18 16 15 13 13 12 10 9 7 8 8 11 6 4 3 5 16 10 10 8 1 2 2 1 3 2 2 5 3 3 3 3 2 1 3 3 5 4 6 4 4 5
22 21 20 18 17 16 14 13 12 10 9 7 5 8 4 2 7 7 4 13 12 10 6 2 2 2 3 2 1 1 2 3 2 5 3 2 4 4 4 3 5 7 7 5 3
22 21 20 18 16 16 14 13 13 11 8 7 4 6 1 3 4 3 6 11 9 10 4 4 3 3 3 1 2 2 3 4 5 5 3 4 3 3 4 7 5 6 6 5 4
25 21 20 19 18 16 15 13 12 11 8 5 5 2 2 11 3 2 2 8 9 7 3 2 4 3 1 4 1 2 5 7 6 4 5 5 5 9 4 7 7 6 5 5 4
27 23 21 20 19 17 15 13 11 9 7 5 5 2 6 10 11 23 12 8 9 6 4 3 3 4 2 1 6 3 3 3 4 5 1 5 8 7 7 9 8 7 5 5 4
31 25 23 20 18 17 14 11 9 7 6 4 4 4 7 7 9 14 16 7 7 6 5 3 3 3 3 3 4 4 2 3 6 4 3 4 5 5 6 7 8 7 6 5 5
35 28 24 21 19 16 12 8 5 4 5 2 4 3 6 5 5 16 15 10 4 6 3 3 4 3 3 4 4 3 3 4 4 3 3 3 10 7 6 7 11 9 7 6 6
36 30 27 23 20 18 16 7 2 1 5 8 7 5 3 11 3 8 15 10 3 5 5 2 3 6 8 8 6 2 5 6 4 4 5 7 7 9 9 3 8 8 8 7 7
37 32 28 24 22 21 20 5 6 4 4 18 5 8 9 3 3 4 15 6 5 5 4 4 6 9 6 4 6 6 3 6 5 0 2 6 9 12 8 9 10 14 9 9 7
40 34 29 26 24 23 25 18 6 5 2 4 12 7 6 8 6 5 10 6 5 7 8 7 6 8 7 4 6 4 5 4 6 4 2 3 8 7 4 6 8 7 7 6 12
41 34 31 28 20 20 14 33 4 7 3 6 6 8 7 4 5 8 13 6 3 10 7 6 8 6 5 6 6 3 5 3 2 2 3 2 5 6 5 5 8 12 9 9 9
43 37 37 38 14 17 17 34 14 1 1 4 5 2 7 9 5 8 10 4 8 7 7 7 4 7 6 13 7 8 6 4 1 2 2 1 1 6 1 6 7 10 12 9 10
47 43 42 36 12 18 17 30 8 4 8 4 6 6 6 5 3 2 5 3 5 4 2 9 3 5 7 2 5 4 3 5 4 3 2 6 7 5 4 7 4 6 11 13 9
46 48 48 35 8 22 25 12 4 6 3 6 6 6 7 8 4 6 8 7 7 6 5 2 3 2 4 4 1 3 5 2 2 1 5 3 3 10 6 7 10 18 15 12 10
47 46 45 33 17 27 22 4 5 9 8 3 5 7 8 6 5 6 8 8 4 4 4 7 3 8 5 7 6 6 6 4 5 3 3 2 5 5 4 7 6 10 15 12 11
41 39 33 35 18 27 11 13 12 6 8 9 5 6 5 5 7 4 7 8 11 8 7 6 5 1 1 3 9 4 4 5 2 1 1 4 7 9 2 5 5 9 11 15 14
34 23 25 35 25 5 12 14 8 5 9 6 8 6 10 8 6 10 8 6 6 10 4 5 3 1 3 3 3 5 5 3 1 4 4 4 5 5 3 4 5 8 12 14 13
19 6 22 30 18 4 17 12 5 6 7 7 8 6 6 8 9 6 9 6 13 9 13 5 3 1 2 6 8 3 3 2 3 4 4 1 5 5 5 7 9 9 11 14 16
8 6 29 33 6 9 8 9 5 7 2 4 4 4 8 9 7 8 11 6 7 9 11 9 5 4 8 2 5 4 7 7 4 4 2 3 5 3 4 5 7 9 8 8 11
8 3 25 26 12 15 5 8 4 6 6 5 4 3 4 7 5 7 7 2 2 10 12 9 4 2 1 2 1 5 5 5 4 2 5 4 5 2 4 4 6 8 8 8 9
4 6 6 6 5 16 17 22 11 4 5 5 5 4 4 4 2 7 7 1 1 3 5 13 3 9 7 4 4 5 7 8 6 4 4 6 6 6 5 6 6 6 8 8 10
3 6 7 18 19 17 20 20 19 8 4 6 3 5 6 3 5 5 3 2 3 1 3 6 8 5 5 4 4 5 6 9 9 10 7 10 9 13 7 8 8 7 3 6 7
6 7 7 10 17 17 22 19 22 18 10 7 8 9 6 6 7 8 7 5 5 1 4 1 2 6 4 4 7 4 6 8 9 6 7 7 11 6 9 4 4 8 7 7 8
4 7 10 18 20 13 24 18 25 10 2 9 7 6 5 7 2 4 5 6 8 9 6 7 6 3 4 3 2 4 7 8 6 6 8 8 14 4 4 7 6 6 8 10 10
Wind_Direction
249 248 250 250 256 267 269 270 277 285 289 302 307 308 312 317 316 300 252 213 201 183 186 176 221 331 358 11 15 91 65 301 294 16 246 348 103 334 14 70 39 1 112 256 152
247 246 248 251 258 261 266 269 267 276 287 301 309 310 313 321 319 270 234 192 173 188 181 185 288 26 7 330 354 87 109 228 279 130 127 343 34 291 71 29 72 46 44 119 151
242 243 247 253 258 259 262 266 266 271 281 299 309 308 311 323 297 248 220 208 210 203 182 199 284 142 176 160 215 154 190 216 264 176 170 184 318 299 115 289 200 178 172 175 183
241 237 240 246 254 259 260 260 262 269 275 293 310 301 311 307 222 319 248 191 202 198 203 178 80 144 171 202 238 156 235 180 232 228 171 208 243 304 178 227 176 161 157 122 142
240 237 241 244 247 254 257 258 261 265 272 283 300 297 329 277 254 312 199 182 184 189 200 127 25 164 197 213 122 199 280 302 335 231 249 151 248 233 246 196 143 109 99 119 119
235 236 238 241 242 247 251 254 257 262 264 280 275 291 264 255 257 285 207 183 187 188 172 156 218 188 125 128 156 232 262 273 278 242 255 193 271 131 268 171 140 120 96 72 65
229 232 234 234 237 240 245 245 251 261 259 266 253 277 263 236 207 96 194 211 198 191 173 227 198 92 165 331 281 251 302 318 249 225 220 142 295 240 222 153 140 121 108 83 40
231 234 234 232 232 234 238 237 242 253 252 251 241 199 244 256 255 257 252 233 209 225 201 140 157 116 149 146 11 326 58 336 286 153 174 115 269 267 205 145 163 153 136 100 48
230 233 235 228 230 230 231 236 245 241 242 226 239 202 257 286 221 239 211 198 170 157 132 133 87 118 30 74 357 5 240 217 310 200 126 157 261 275 177 165 169 173 171 137 97
228 229 228 222 221 217 215 213 224 230 214 217 255 314 274 236 200 216 211 196 148 120 58 77 54 93 55 87 237 248 291 256 239 240 189 206 257 282 223 176 180 179 184 155 131
224 224 221 212 208 198 186 155 127 256 212 193 201 200 292 219 222 206 194 174 94 89 164 197 125 197 213 204 220 232 250 251 249 257 182 236 259 249 238 178 172 186 189 169 152
219 216 210 199 195 193 187 189 205 174 224 239 264 283 270 327 321 248 175 142 147 180 148 66 212 220 215 209 214 218 246 270 275 300 161 283 259 260 212 215 188 182 189 179 152
210 210 198 190 190 189 195 198 142 105 165 256 205 202 215 172 219 236 152 149 156 167 181 169 219 198 187 254 208 229 212 235 240 10 285 305 283 260 265 189 144 180 176 178 166
202 200 186 182 179 189 212 195 179 25 60 260 200 241 171 147 229 213 175 141 168 188 167 207 236 210 191 218 164 254 209 233 253 111 236 60 283 298 267 218 167 172 181 181 170
194 188 184 183 167 184 202 194 208 29 292 224 178 201 175 158 157 222 183 93 174 186 139 228 210 205 190 228 174 226 190 213 238 106 16 221 326 272 140 238 221 191 186 187 183
191 183 182 184 178 196 178 184 172 78 231 218 154 169 105 204 181 132 139 136 169 199 197 208 198 160 205 109 169 133 127 42 56 76 315 215 178 265 202 215 183 179 192 184 183
185 180 183 180 194 175 172 140 96 185 235 196 183 158 162 172 200 178 157 167 168 150 198 187 228 193 153 115 69 114 85 350 357 348 231 145 149 257 255 230 193 188 190 184 182
186 180 183 181 146 176 160 99 173 178 204 135 138 120 173 144 222 182 144 181 234 146 126 167 224 176 194 178 180 188 156 169 211 201 274 166 235 250 253 288 207 181 180 172 180
188 177 178 189 169 169 168 196 198 174 184 146 63 131 196 178 168 151 181 201 196 175 167 164 257 131 150 156 148 186 176 183 59 153 58 248 288 309 280 23 151 156 159 186 188
176 175 181 190 188 152 187 202 178 211 135 143 158 165 183 186 154 177 185 205 206 183 184 196 162 240 164 135 55 147 160 111 34 222 228 274 273 244 270 237 170 182 189 193 190
177 157 177 176 168 170 199 194 201 186 141 147 176 156 181 174 172 188 203 242 205 197 189 173 116 312 153 208 169 127 174 180 143 161 188 261 264 218 230 214 209 208 203 193 194
153 168 156 157 164 191 196 177 207 148 151 140 129 129 162 168 160 184 201 226 171 174 178 193 154 175 209 256 198 183 180 159 152 217 223 155 271 267 268 255 219 238 225 210 199
143 126 158 170 180 186 160 211 210 147 163 152 149 166 156 157 164 191 183 232 181 169 177 170 192 134 359 349 313 201 195 165 132 106 200 158 256 329 320 335 207 219 225 207 184
132 142 147 187 253 172 175 193 200 171 160 147 149 130 127 142 196 191 184 144 2 144 132 153 157 205 210 198 141 197 189 190 168 193 198 226 273 272 272 278 281 248 227 210 194
159 164 179 180 206 181 181 182 190 173 171 156 90 175 156 139 140 165 133 112 7 56 100 134 192 179 230 244 191 213 184 177 197 209 184 242 211 253 210 219 241 252 191 176 172
145 156 171 169 174 180 184 194 191 188 155 190 144 184 159 149 178 192 143 181 188 204 146 242 181 167 240 210 208 225 227 191 216 232 249 254 262 229 228 239 220 227 201 198 189
160 130 146 164 178 182 193 177 199 168 247 164 140 123 133 213 255 224 175 174 167 152 172 154 137 122 237 192 110 300 220 219 208 205 206 214 248 179 220 225 221 225 197 194 183